Retour au catalogue

PSLV R/B

ActifSSO
NORAD 40720·ROCKET BODY·🇮🇳 India

Lancé Jul 10, 2015 depuis Satish Dhawan Space Centre

Loading…

Prochains Passages (prochaines 24 heures)

TLE

FraisSource: Space-Track

Époque: Sep 14, 2026, 09:44 UTC

1 40720U 15032F   26257.40588553  .00000726  00000-0  87999-4 0  9995
2 40720  98.2036 230.3696 0005037 146.6247 213.5287 14.86812483604550

Suivez PSLV R/B en temps réel avec AllMySat

Download on the App Store